Regional Weather Roundup
Issued by NWS

Home | Current Version | Previous Version | Graphics & Text | Print | Product List | Glossary Off
Versions: 1 2 3 4 5 6 7 8 9 10 11 12 13 14 15 16 17 18 19 20 21 22 23 24 25 26 27 28 29 30 31 32 33 34 35 36 37 38 39 40 41 42 43 44 45 46 47 48 49 50

000
ASUS43 KDMX 220507
RWRIA

WEATHER ROUNDUP FOR IOWA
NATIONAL WEATHER SERVICE DES MOINES IA
1200 AM CDT TUE JUL 22 2014

NOTE: "FAIR" INDICATES FEW OR NO CLOUDS BELOW 12,000 FEET WITH NO
SIGNIFICANT WEATHER AND/OR OBSTRUCTIONS TO VISIBILITY.

* - THESE STATIONS ARE NOT NWS STATIONS...THUS NOT UNDER NWS
QUALITY CONTROL.  THEY ALSO DO NOT REPORT WEATHER SUCH
AS PRECIPITATION OR FOG.

IAZ001>003-012>014-020>022-031>034-043>046-220600-
   NORTHWEST IOWA

CITY           SKY/WX    TMP DP  RH WIND       PRES   REMARKS
CARROLL *      CLEAR     81  75  83 S9G16     29.87S HX  86
CHEROKEE *     MOCLDY    81  79  94 S8        29.84S HX  89
DENISON *      CLEAR     82  77  83 S12G20    29.85S HX  91
LE MARS *      CLEAR     79  77  94 S5        29.83R HX  83
ORANGE CITY *  CLEAR     79  73  83 S5        29.84R HX  82
SHELDON *      CLEAR     77  77 100 S5        29.83R
SIOUX CITY     PTCLDY    81  77  88 E6        29.82R HX  88
SPENCER        MOCLDY    80  77  90 S9        29.84S HX  87
STORM LAKE *   CLEAR     79  79 100 S8        29.88R HX  83
$$

IAZ055>058-069>071-079>083-090>094-220600-
   SOUTHWEST IOWA

CITY           SKY/WX    TMP DP  RH WIND       PRES   REMARKS
ATLANTIC *     CLEAR     81  75  83 S10G16    29.89R HX  86
AUDUBON *      CLEAR     82  77  83 S9        29.91R HX  91
CLARINDA *     CLEAR     79  73  83 S8        29.93R HX  82
COUNCIL BLFS *   N/A     84  79  84 S12G20    29.88R HX  96
CRESTON *      CLEAR     79  77  94 S12       29.94S HX  83
HARLAN  *      PTCLDY    82  75  78 S8G15     29.92R HX  89
LAMONI         CLEAR     79  75  87 S10       29.96S HX  83
RED OAK *      MOCLDY    81  75  83 S8        29.90R HX  86
SHENANDOAH *   CLEAR     81  75  83 CALM      29.91R HX  86
$$

IAZ047>049-059>061-072>074-084-220600-
   CENTRAL IOWA

CITY           SKY/WX    TMP DP  RH WIND       PRES   REMARKS
AMES           PTCLDY    79  76  90 SE8       29.91S HX  83
ANKENY *       CLEAR     82  75  78 S13       29.91S HX  89
CHARITON *     CLEAR     81  75  83 S13       29.96S HX  86
DES MOINES     PTCLDY    83  75  77 S15       29.91S HX  90
GRINNELL*      CLEAR     77  72  83 SE10      29.97S
KNOXVILLE *    CLEAR     79  75  89 S10       29.94S HX  82
MARSHALLTOWN   CLEAR     79  74  84 S13       29.93S HX  82
PELLA *        CLEAR     78  74  86 S9        29.96S HX  81
PERRY *          N/A     81  77  89 S10       29.89S HX  88
$$

IAZ004>006-015-016-023>025-035-036-220600-
   NORTH CENTRAL IOWA

CITY           SKY/WX    TMP DP  RH WIND       PRES   REMARKS
ALGONA *       CLEAR     82  77  83 S17       29.86S HX  91
CLARION *      CLEAR     81  77  89 S16G22    29.88S HX  88
ESTHERVILLE    MOCLDY    80  77  90 S17       29.83F HX  87
FORT DODGE *   MOCLDY    81  75  83 S13G23    29.88S HX  86
MASON CITY     MOCLDY    79  76  90 S12       29.90S HX  83
FOREST CITY *  CLEAR     81  77  89 S10       29.89R HX  88
IOWA FALLS *     N/A     79  75  89 S13       29.92F HX  82
$$

IAZ007>011-017>019-026>030-037>042-050>054-066-220600-
   NORTHEAST IOWA

CITY           SKY/WX    TMP DP  RH WIND       PRES   REMARKS
CEDAR RAPIDS   CLEAR     76  68  76 S10       29.98R
CHARLES CITY * MOCLDY    79  73  83 S12G20    29.92S HX  82
DECORAH *      CLOUDY    75  70  83 S12G18    29.93S
DUBUQUE        CLEAR     72  69  90 S10       30.01R
MONTICELLO *   CLEAR     75  70  83 S8G15     29.99S
OELWEIN *      PTCLDY    75  72  88 S14       29.96S
WATERLOO       MOCLDY    79  71  76 S17       29.92S HX  82
$$

IAZ064-065-067-068-078-220600-
   EAST CENTRAL IOWA

CITY           SKY/WX    TMP DP  RH WIND       PRES   REMARKS
DAVENPORT      CLEAR     76  68  76 S12       30.02R
IOWA CITY      CLEAR     75  70  84 SE8       30.00R
MT. PLEASANT * CLEAR     75  66  73 S8        30.01R
MUSCATINE *    CLEAR     77  70  78 S8        30.00R
QUAD CITIES    CLEAR     75  68  78 S8        30.01S
$$

IAZ062-063-075>077-085>089-095>099-220600-
   SOUTHEAST IOWA

CITY           SKY/WX    TMP DP  RH WIND       PRES   REMARKS
BURLINGTON     CLEAR     76  69  79 S9        30.02R
FAIRFIELD *    CLEAR     77  68  73 S12       29.99S
FORT MADISON * CLEAR     77  70  78 S8        30.03R
KEOKUK *       CLEAR     77  68  73 SE7       30.02R
OSKALOOSA *      N/A     77  72  83 S8        29.98S
CENTERVILLE *  CLEAR     77  72  83 S8        30.00S
OTTUMWA        MOCLDY    78  70  76 S10       29.97S HX  80
WASHINGTON *   CLEAR     75  70  83 S9        29.99S
$$

ABBREVIATIONS USED IN REMARKS
   TC - TEMPERATURES IN CELSIUS
  WCI - WIND CHILL INDEX
   HX - HEAT INDEX
  VSB - VISIBILITY
$$



USA.gov is the U.S. government's official web portal to all federal, state and local government web resources and services.